Weather Roundup
Issued by NWS

Home | Current Version | Previous Version | Graphics & Text | Print | Product List | Glossary Off
Versions: 1 2 3 4 5 6 7 8 9 10 11 12 13 14 15 16 17 18 19 20 21 22 23 24 25 26 27 28 29 30 31 32 33 34 35 36 37 38 39 40 41 42 43 44 45 46 47 48 49 50

000
NZUS93 KARX 041959
HRRWXR

CURRENT HOURLY OBSERVATIONS ACROSS
MUCH OF THE UPPER MISSISSIPPI VALLEY
NATIONAL WEATHER SERVICE LA CROSSE WI
300 PM CDT MON MAY 04 2015


...SOUTHEAST MINNESOTA...


CITY           SKY/WX    TMP DP  RH WIND       PRES   REMARKS
ROCHESTER      PTSUNNY   66  39  37 E7        30.18S
ROCHESTER/MAYO FAIR      67  33  27 N9        30.17S
WINONA         PTSUNNY   70  37  30 E6        30.17R
AUSTIN         PTSUNNY   64  37  36 NE9       30.17S
ALBERT LEA     PTSUNNY   68  34  28 NE12G18   30.16F
DODGE CENTER   PTSUNNY   66  34  30 N12       30.17F
PRESTON        PTSUNNY   65  40  38 N12       30.17S
OWATONNA       PTSUNNY   66  34  30 NE3       30.17S
FARIBAULT      PTSUNNY   68  34  28 NE8       30.17F
$$

...ELSEWHERE IN MINNESOTA...


CITY           SKY/WX    TMP DP  RH WIND       PRES   REMARKS
MINNEAPOLIS    MOSUNNY   69  31  24 MISG      30.17F
INTNL FALLS    PTSUNNY   60  28  29 NW9       30.21S
DULUTH         MOSUNNY   64  18  17 NW5G16    30.19S
RED WING       MOSUNNY   70  30  23 NE9G18    30.16S
REDWOOD FALLS  SUNNY     73  25  16 NE9G17    30.16F
MANKATO        MOSUNNY   66  30  26 N10       30.17S
WORTHINGTON    CLOUDY    68  28  22 E13G23    30.16F
FAIRMONT       CLOUDY    70  28  21 E14       30.16S
$$

...SOUTHWEST WISCONSIN...


CITY           SKY/WX    TMP DP  RH WIND       PRES   REMARKS
LA CROSSE      PTSUNNY   74  36  25 NW7       30.14S
PRAIRIE DU CHI PTSUNNY   73  50  44 NE3       30.12S
BOSCOBEL       MOSUNNY   75  49  39 E9        30.12S
LONE ROCK      NOT AVBL
PLATTEVILLE    PTSUNNY   71  57  61 NE7       30.13S
FORT MC COY    MOSUNNY   72  33  23 N5        30.15S
VIROQUA        FAIR      70  40  34 CALM      30.16S
WIS DELLS      NOT AVBL
$$

...ELSEWHERE IN WISCONSIN...


CITY           SKY/WX    TMP DP  RH WIND       PRES   REMARKS
MILWAUKEE      PTSUNNY   62  43  49 NE13      30.16R
MADISON        PTSUNNY   74  51  44 VRB5      30.13R
GREEN BAY      SUNNY     74  40  29 N10       30.13R
EAU CLAIRE     NOT AVBL
BLACK RVR FLS  FAIR      70  31  23 NW6       30.15S
MEDFORD        SUNNY     65  33  29 NE10      30.17S
WAUSAU         SUNNY     68  32  26 CALM      30.14S
WIS RAPIDS     SUNNY     71  30  21 NE6       30.15S
MARSHFIELD     SUNNY     70  33  25 N8        30.16S
RICE LAKE      SUNNY     67  24  19 NW14      30.19F
$$

...NORTHEAST IOWA...


CITY           SKY/WX    TMP DP  RH WIND       PRES   REMARKS
DECORAH        PTSUNNY   68  41  37 VRB3G14   30.15R
MASON CITY     PTSUNNY   69  40  34 E16G23    30.16S
CHARLES CITY   CLOUDY    68  45  42 NE13G18   30.15F
OELWEIN        CLOUDY    68  57  68 E12       30.14R
$$

...ELSEWHERE IN IOWA...


CITY           SKY/WX    TMP DP  RH WIND       PRES   REMARKS
DES MOINES     LGT RAIN  69  60  73 E12       30.06F
IOWA CITY      PTSUNNY   73  63  70 NE12      30.10S
FORT DODGE     CLOUDY    64  45  48 NE14      30.14F
$$

...NORTHERN ILLINOIS...


CITY           SKY/WX    TMP DP  RH WIND       PRES   REMARKS
CHICAGO-OHARE  CLOUDY    72  56  57 E13       30.12R
CHICAGO-MIDWAY CLOUDY    70  57  63 E14       30.13R
MOLINE         CLOUDY    76  61  59 NE8       30.08F
ROCKFORD       PTSUNNY   73  56  54 CALM      30.13F
PEORIA         PTSUNNY   75  61  61 CALM      30.11S
$$

NOTE: "FAIR" INDICATES FEW OR NO CLOUDS BELOW 12,000 FEET WITH NO
SIGNIFICANT WEATHER AND/OR OBSTRUCTIONS TO VISIBILITY. WIND
SPEEDS ARE IN MILES-PER-HOUR.



USA.gov is the U.S. government's official web portal to all federal, state and local government web resources and services.